www.pogodaiklimat.ru

Погода и климат >> Архив погоды >> Россия >> Пермский край >> Березники


ПОГОДА в Березниках

  • Прогноз погоды в Березниках
  • Монитор погоды в Березниках

АРХИВ ПОГОДЫ в Березниках

Время (UTC), дата Ветер
(напр.,м/с)
 
Видим.   Явления Облачность Т
(С)
Тd
(С)
f
(%)
Тe
(С)
Тes
(С)
Комфортность P
(гПа)
Po
(гПа)
Тmin
(С)
Tmax
(С)
R
(мм)
R24
(мм)
S
(см)
18 12.06 СЗ 5
{12}
50 км {ливн. осадки} 10/10 600 м
[Cb cap]
+6.8 +0.9 66 +3 +3 1010.4 988.8
21 12.06 СЗ 3
{14}
50 км 10/10 600 м
[Cb cap]
+5.2 +1.2 75 +2 +2 1012.2 990.4
00 13.06 СЗ 3 50 км 10/10 600 м
[Sc]
+5.4 +2.1 79 +2 +2 1012.4 990.6
03 13.06 СЗ 3 50 км в посл. час ливневой дождь 9/9 600 м
[Cb cap]
+5.6 +1.5 75 +2 +3 1012.9 991.1 +4.9
06 13.06 СЗ 4-10
{11}
50 км {ливн. осадки} 9/8 600 м
[Sc diur, vesp Ac trans]
+8.1 +0.1 57 +5 +6 1014.0 992.4
09 13.06 СЗ 4
{10}
20 км {ливн. осадки} 10/10 1000 м
[Sc diur, vesp]
+7.7 +1.6 65 +5 +5 1015.3 993.6
12 13.06 СЗ 4
{12}
50 км {ливн. осадки} 10/8 1000 м
[Sc diur, vesp Ac trans]
+9.7 +0.4 52 +7 +8 1015.2 993.7
15 13.06 СЗ 3
{10}
50 км 9/8 600 м
[Cu Sc Ac As Cs]
+9.7 -0.8 48 +8 +8 1015.4 993.9 +10.2 0.5
18 13.06 З 2 50 км 10/10 600 м
[Sc]
+8.6 +1.4 61 +7 +7 1014.9 993.3
21 13.06 З 2 50 км 10/10 600 м
[Sc]
+7.6 +1.0 63 +6 +6 1013.7 992.0
00 14.06 СЗ 2 50 км 4/4 1000 м
[Sc diur, vesp]
+5.4 +0.4 70 +3 +3 1013.2 991.4
03 14.06 СЗ 4 50 км 3/1 1000 м
[Cu hum Ci fib]
+8.3 +0.1 56 +6 +8 1012.8 991.3 +5.4
06 14.06 З 4 50 км 4/4 600 м
[Cu hum]
+11.2 -0.5 44 +9 +14 1011.8 990.5
09 14.06 СЗ 3
{10}
50 км 4/4 600 м
[Cu hum]
+14.0 -2.0 33 +13 +20 1010.3 989.2
12 14.06 СЗ 3 50 км 6/4 600 м
[Sc diur, vesp As trans Ci fib]
+15.0 -2.9 29 +15 +18 1009.1 988.1
15 14.06 С 2 50 км 5/3 600 м
[Cu hum Ac As Ci fib]
+14.3 -2.7 31 +14 +15 1008.3 987.3 +15.7
18 14.06 штиль 0 50 км 3/0 2000 м
[As trans]
+8.6 -1.0 51 +8 +8 1009.4 987.9
21 14.06 В 1 50 км 1/0 2000 м
[As trans]
+5.7 -1.1 62 +5 +5 1010.4 988.7
00 15.06 штиль 0 50 км ясно +2.4 -0.4 82 +1 +2 1010.6 988.6
03 15.06 Ю 1 50 км 3/0
[Ci fib]
+10.6 +1.6 54 +11 +15 1009.7 988.4 +2.3
06 15.06 ЮЗ 2 50 км 8/1 1000 м
[Cu hum Ci]
+14.4 +1.0 40 +14 +23 1008.1 987.1
09 15.06 З 4 50 км 10/10 600 м
[Sc]
+13.7 -0.6 37 +13 +13 1007.5 986.5
12 15.06 З 3 50 км 9/5 600 м
[Cb cap Ac As Ci fib]
+14.1 +2.9 47 +13 +15 1006.5 985.5
15 15.06 З 4
{11}
50 км в посл. час ливневой дождь 9/8 600 м
[Cb cap Ac As Ci fib]
+12.6 +5.5 62 +11 +11 1005.4 984.3 +15.2
18 15.06 З 3
{10}
50 км {ливн. осадки} 10/8 600 м
[Sc Ac As Ci fib]
+8.6 +6.8 88 +6 +6 1005.3 984.0
21 15.06 З 2 50 км 10/8 300 м
[Frnb Ac As]
+8.2 +6.5 89 +6 +6 1004.6 983.3
00 16.06 СЗ 2 20 км 9/8 300 м
[Frnb Ac As Ci fib]
+7.2 +5.6 90 +5 +5 1004.7 983.2
03 16.06 З 1 20 км 9/3 600 м
[Sc Ac As Cc]
+9.2 +5.7 79 +9 +11 1004.6 983.3 +7.0 3
06 16.06 СЗ 2 50 км в посл. час ливневой дождь 9/9 600 м
[Cb cap]
+8.7 +5.6 81 +7 +8 1004.8 983.5
09 16.06 СЗ 3
{10}
20 км слаб. ливневой дождь 9/9 600 м
[Cb cap]
+7.7 +4.4 80 +5 +6 1005.6 984.2
12 16.06 СЗ 3
{10}
50 км {ливн. осадки} 8/8 600 м
[Cu med, cong Ci fib]
+12.0 +2.3 51 +11 +12 1005.3 984.2
15 16.06 СЗ 3 50 км 8/8 600 м
[Cb cap]
+11.7 +1.2 48 +10 +11 1006.1 984.9 +12.3 3
18 16.06 З 1 50 км 6/0 2000 м
[Ac cast]
+9.6 +2.3 60 +9 +9 1006.8 985.5
21 16.06 штиль 0 50 км 3/0
[Cc]
+4.4 +2.4 87 +3 +3 1006.8 985.1
00 17.06 Ю 1 50 км 8/8 600 м
[Sc]
+7.4 +4.5 82 +7 +7 1005.7 984.2
03 17.06 Ю 3 50 км слаб. ливневой дождь 10/10 600 м
[Cb cap]
+7.5 +5.2 85 +5 +5 1004.4 983.0 +4.2 0.5
06 17.06 Ю 3 50 км в посл. час ливневой дождь 10/9 600 м
[Cb cap Ac As]
+8.7 +6.2 84 +6 +6 1003.1 981.8
09 17.06 З 3 50 км в посл. час ливневой дождь 10/9 600 м
[Cb cap Ac As]
+10.9 +7.9 82 +9 +9 1002.2 981.1
12 17.06 С 2
{13}
50 км {ливн. осадки} 8/8 600 м
[Cb cap Ac trans]
+11.7 +7.4 75 +11 +12 1003.0 981.9
15 17.06 СЗ 2 50 км в посл. час ливневой дождь 8/8 600 м
[Cb calv Ac trans]
+11.7 +5.2 64 +11 +11 1004.6 983.5 +13.4 8
18 17.06 СЗ 2 50 км 4/3 600 м
[Sc Ac trans]
+8.3 +3.5 72 +7 +7 1006.5 985.1
21 17.06 СЗ 2 50 км 4/3 600 м
[Sc Ac trans Ci fib]
+6.2 +2.5 77 +4 +4 1007.7 986.1
00 18.06 З 1 50 км 3/1 600 м
[Sc Ac trans Ci fib]
+4.9 +2.1 82 +4 +4 1008.5 986.8
03 18.06 З 1 50 км 3/3 600 м
[Cu hum Ac trans]
+10.0 +2.9 61 +10 +13 1009.0 987.6 +4.4
06 18.06 ЮЗ 3 50 км 8/5 1000 м
[Sc Ac As]
+13.7 +4.4 53 +13 +16 1007.9 986.8
09 18.06 З 4
{10}
50 км 8/6 1000 м
[Cu med, cong As trans]
+17.0 +3.9 42 +17 +19 1006.4 985.6
12 18.06 З 3
{11}
50 км 8/6 1000 м
[Sc diur, vesp Ac As Cc]
+18.5 +3.9 38 +19 +21 1005.9 985.2
15 18.06 З 2
{10}
50 км 8/6 600 м
[Sc diur, vesp Ac As]
+18.2 +3.6 38 +19 +19 1005.6 984.9 +19.7
18 18.06 ЮЗ 2 50 км 8/6 600 м
[Cb calv Ac trans]
+15.1 +4.9 50 +15 +15 1005.5 984.6
21 18.06 ЮЗ 2 50 км 10/10 600 м
[Sc]
+14.7 +6.2 57 +15 +15 1005.6 984.7
00 19.06 ЮЗ 2 50 км 10/10 600 м
[Cb calv]
+13.7 +7.4 66 +13 +13 1005.9 984.9
03 19.06 ЮЗ 2 50 км 8/8 1000 м
[Sc As trans]
+15.2 +8.8 66 +15 +16 1006.1 985.2 +13.5
06 19.06 ЮЗ 2 50 км в посл. час ливневой дождь 9/3 1000 м
[Sc Ac trans Ci fib]
+16.4 +10.7 69 +17 +21 1006.1 985.3
09 19.06 ЮЗ 3 50 км 8/3 1000 м
[Cu med, cong Ac trans Ci fib]
+20.4 +12.2 59 +23 +28 комфорт 1005.9 985.4
12 19.06 ЮЗ 3 50 км 4/3 1000 м
[Sc diur, vesp Ac trans Ci sp]
+22.3 +10.7 48 +24 +29 комфорт 1005.7 985.4

 

Местоположение метеостанции Березники (Пермский край, Россия): широта 59.38 долгота 56.93 высота над уровнем моря 176 м.

В архиве по умолчанию представлена погода в Березниках за последнюю неделю. Архивные данные за месяц целиком и за предыдущие месяцы, начиная с января 2011 года, Вы можете получить, выбрав интересующий диапазон дат из раскрывающегося списка и нажав кнопку "Ввод!".


*Определитесь, кто Вы:
робот инопланетянин человек

Внимание! Время в таблицах - всемирное. Для получения местного времени необходимо прибавить поправку, которая равна 5 ч.

Смотрите также архив погоды в соседних городах и на ближайших метеорологических станциях:

Погода в Губахе (Пермский край, Россия) (63 км)
Погода в Чермозе (Пермский край, Россия) (80 км)
Погода в Добрянке (Пермский край, Россия) (107 км)
Погода в Чердыни (Пермский край, Россия) (116 км)
Погода в Косе (Пермский край, Россия) (126 км)
Погода в Кытлыме (Свердловская область, Россия) (130 км)
Погода в Кудымкаре (Пермский край, Россия) (136 км)
Погода в Кочево (Пермский край, Россия) (141 км)
Погода в Бисере (Пермский край, Россия) (146 км)
Погода в Перми (Гайва) (Пермский край, Россия) (148 км)

Пояснения к столбцам:

Ветер - указаны скорость ветра в м/с - средняя за 10 мин, порывы в срок и между сроками (в фигурных скобках) и направление, откуда дует ветер: С - северный, СВ - северо-восточный, В - восточный, ЮВ - юго-восточный, Ю - южный, ЮЗ - юго-западный, З - западный, СЗ - северо-западный.
Видимость - горизонтальная дальность видимости в метрах или километрах. При видимости от 1 до 10 км при отсутствии осадков обычно наблюдается дымка, при ухудшении видимости до 1 км и менее - туман. В сухую погоду видимость может ухудшаться дымом, пылью или мглою.
Явления - указаны атмосферные явления, наблюдавшиеся в срок или в последний час перед сроком; фигурными скобками обозначены явления, наблюдавшиеся между сроками (за 1-3 часа до срока); квадратными скобками обозначены град или гололедные отложения с указанием их диаметра в мм.
Облачность - указаны через наклонную черту общая и нижняя облачность в баллах и высота нижней границы облаков в метрах; квадратными скобками обозначены формы облаков: Ci - перистые, Cs - перисто-слоистые, Cc - перисто-кучевые, Ac - высококучевые, As - высокослоистые, Sc - слоисто-кучевые, Ns - слоисто-дождевые, Cu - кучевые, Cb - кучево-дождевые. Подробнее классификацию облаков см. в Атласе облаков (PDF).
T - Температура воздуха - температура, измеренная на высоте 2 м над землей.
Td - Температура точки росы - температура, при понижении до которой содержащийся в воздухе водяной пар достигнет насыщения.
f - Относительная влажность воздуха - влажноcть воздуха, измеренная на высоте 2 м над землей.
Te - Эффективная температура - температура, которую ощущает одетый по сезону человек в тени. Характеристика душности погоды. При расчете учитывается влияние влажности воздуха и скорости ветра на теплоощущения человека.
Tes - Эффективная температура на солнце - температура, которую ощущает человек, с поправкой на солнечный нагрев. Характеристика знойности погоды. Зависит от высоты солнца над горизонтом, облачности и скорости ветра. Ночью, в пасмурную погоду, а также при ветре 12 м/с и более поправка равна нулю.
P - Атмосферное давление - приведенное к уровню моря атмосферное давление.
Po - Атмосферное давление - измеренное на уровне метеостанции атмосферное давление.
Tmin - Минимальная температура - минимум температуры воздуха на высоте 2 м над землей.
Tmax - Максимальная температура - максимум температуры воздуха на высоте 2 м над землей.
R - Количество осадков - Количество выпавших осадков за период времени, мм. При наведении курсора мыши на число - период времени, за который выпало указанное количество осадков.
R24 - Количество осадков - Количество выпавших осадков за 24 часа, мм.
S - Снежный покров - Высота снежного покрова, см. При наведении курсора мыши на число - состояние снежного покрова и степень покрытия местности в баллах.